TimeAKDT,TemperatureF,Dew PointF,Humidity,Sea Level PressureIn,VisibilityMPH,Wind Direction,Wind SpeedMPH,Gust SpeedMPH,PrecipitationIn,Events,Conditions,WindDirDegrees,DateUTC
12:53 AM,39.0,37.9,96,29.85,10.0,Calm,Calm,-,N/A,,Overcast,0,2012-10-01 08:53:00
1:53 AM,37.0,37.0,100,29.83,10.0,Calm,Calm,-,N/A,,Scattered Clouds,0,2012-10-01 09:53:00
2:53 AM,35.1,35.1,100,29.82,10.0,Calm,Calm,-,N/A,Fog,Patches of Fog,0,2012-10-01 10:53:00
3:32 AM,35.6,35.6,100,29.82,0.5,Calm,Calm,-,N/A,Fog,Fog,0,2012-10-01 11:32:00
3:53 AM,35.1,35.1,100,29.82,0.5,Calm,Calm,-,N/A,Fog,Fog,0,2012-10-01 11:53:00
4:01 AM,35.6,35.6,100,29.82,2.0,Calm,Calm,-,N/A,Fog,Patches of Fog,0,2012-10-01 12:01:00
4:15 AM,35.6,33.8,93,29.82,10.0,Calm,Calm,-,N/A,,Mostly Cloudy,0,2012-10-01 12:15:00
4:53 AM,33.1,33.1,100,29.83,10.0,Calm,Calm,-,N/A,,Mostly Cloudy,0,2012-10-01 12:53:00
5:53 AM,34.0,33.1,96,29.85,10.0,Calm,Calm,-,N/A,Fog,Patches of Fog,0,2012-10-01 13:53:00
6:53 AM,34.0,34.0,100,29.88,10.0,Calm,Calm,-,N/A,Fog,Patches of Fog,0,2012-10-01 14:53:00
7:53 AM,34.0,34.0,100,29.90,10.0,Calm,Calm,-,N/A,,Mostly Cloudy,0,2012-10-01 15:53:00
8:53 AM,35.1,35.1,100,29.94,10.0,Calm,Calm,-,N/A,,Mostly Cloudy,0,2012-10-01 16:53:00
9:53 AM,39.0,37.9,96,29.96,10.0,Calm,Calm,-,N/A,,Mostly Cloudy,0,2012-10-01 17:53:00
10:53 AM,42.1,39.0,89,30.00,10.0,West,3.5,-,N/A,,Overcast,260,2012-10-01 18:53:00
11:53 AM,43.0,39.0,86,30.03,10.0,Calm,Calm,-,0.00,Rain,Light Rain,0,2012-10-01 19:53:00
12:53 PM,44.1,39.0,82,30.05,10.0,Calm,Calm,-,0.01,Rain,Light Rain,0,2012-10-01 20:53:00
1:53 PM,46.0,39.0,76,30.09,10.0,West,4.6,-,0.00,,Mostly Cloudy,270,2012-10-01 21:53:00
2:53 PM,48.0,39.0,71,30.12,10.0,WSW,13.8,-,N/A,,Mostly Cloudy,250,2012-10-01 22:53:00
3:53 PM,45.0,37.9,76,30.17,10.0,WSW,11.5,-,0.00,,Mostly Cloudy,240,2012-10-01 23:53:00
4:53 PM,46.9,37.9,71,30.22,10.0,WSW,11.5,-,N/A,,Mostly Cloudy,240,2012-10-02 00:53:00
5:53 PM,44.1,37.9,79,30.25,10.0,Calm,Calm,-,N/A,,Scattered Clouds,0,2012-10-02 01:53:00
6:53 PM,41.0,37.9,89,30.30,10.0,Calm,Calm,-,N/A,,Scattered Clouds,0,2012-10-02 02:53:00
7:53 PM,37.0,36.0,96,30.33,10.0,Calm,Calm,-,N/A,,Partly Cloudy,0,2012-10-02 03:53:00
8:53 PM,36.0,35.1,97,30.36,10.0,Calm,Calm,-,N/A,,Partly Cloudy,0,2012-10-02 04:53:00
9:53 PM,34.0,33.1,96,30.40,10.0,Calm,Calm,-,N/A,,Clear,0,2012-10-02 05:53:00
10:53 PM,34.0,33.1,96,30.43,10.0,Calm,Calm,-,N/A,,Clear,0,2012-10-02 06:53:00
11:21 PM,33.8,33.8,100,30.45,10.0,Calm,Calm,-,N/A,Fog,Patches of Fog,0,2012-10-02 07:21:00
11:53 PM,32.0,32.0,100,30.46,10.0,Calm,Calm,-,N/A,Fog,Patches of Fog,0,2012-10-02 07:53:00